www.pogodaiklimat.ru

Погода и климат >> Архив погоды >> Россия >> Челябинская область >> Катав-Ивановск


ПОГОДА в Катав-Ивановске

  • Прогноз погоды в Катав-Ивановске
  • Монитор погоды в Катав-Ивановске
  • Климат города

АРХИВ ПОГОДЫ в Катав-Ивановске

Время (UTC), дата Ветер
(напр.,м/с)
 
Видим.   Явления Облачность Т
(С)
Тd
(С)
f
(%)
Тe
(С)
Тes
(С)
Комфортность P
(гПа)
Po
(гПа)
Тmin
(С)
Tmax
(С)
R
(мм)
R24
(мм)
S
(см)
06 17.05 С 1 50 км 8/0
[Ci fib]
+12.0 -5.8 28 +13 +25 опасность
простуды
1025.7 969.1
09 17.05 С 3 50 км 8/0
[Ci sp]
+14.4 -10.3 17 +14 +24 1024.5 968.3
12 17.05 СВ 3 50 км 8/0
[Ac cast Ci fib]
+15.9 -8.0 19 +16 +19 1023.5 967.7
15 17.05 СВ 3 50 км 6/0
[Ac lent Ci fib]
+14.3 -6.2 24 +14 +14 1023.4 967.3 +16.2
18 17.05 штиль 0 4000 м 6/3 600 м
[Sc diur, vesp Ac lent]
+10.2 -5.8 32 +10 +10 1025.0 968.1
21 17.05 Ю 1 4000 м ясно +5.1 -4.7 49 +5 +5 1025.6 967.7
00 18.05 Ю 3 50 км 3/0
[Ci fib]
+3.2 -4.5 57 -0 -0 1026.3 967.9
03 18.05 Ю 2 50 км 10/0
[Ac As]
+6.8 -2.8 50 +5 +6 1025.9 968.3 +1.9
06 18.05 ЮЗ 3 50 км 8/0
[Ac trans]
+16.3 -2.3 28 +16 +22 1023.9 968.2
09 18.05 СЗ 1 50 км 9/9 600 м
[Cu Sc]
+17.4 -3.6 24 +19 +20 1023.2 967.7
12 18.05 З 2 50 км 9/9 600 м
[Cu Sc]
+17.9 -1.9 26 +18 +19 1023.0 967.6
15 18.05 З 1 50 км 8/4 600 м
[Sc diur, vesp Ac trans]
+15.6 -1.9 30 +17 +17 1023.2 967.5 +18.5
18 18.05 Ю 3 4000 м 3/0
[Ac trans]
+12.5 -1.3 38 +11 +11 1023.8 967.5
21 18.05 Ю 3 4000 м ясно +9.7 -0.8 48 +8 +8 1025.0 968.0
00 19.05 Ю 3 50 км 4/0
[Ci fib]
+9.6 -1.8 45 +8 +8 1025.3 968.3
03 19.05 Ю 3 50 км 8/0
[Ci sp]
+11.2 -1.4 41 +10 +12 1024.6 967.9 +8.5
06 19.05 З 2 50 км 10/0
[Ci sp]
+17.8 -1.8 26 +18 +28 1022.8 967.4
09 19.05 ЮЗ 2 50 км 10/0
[Ci sp]
+19.7 -1.9 23 +20 +32 1021.5 966.6
12 19.05 З 1 50 км 8/0
[Ci fib]
+20.9 -1.6 22 +22 +29 комфорт 1020.1 965.4
15 19.05 З 2 50 км 8/0
[Ci sp]
+19.0 -2.3 24 +20 +20 1019.2 964.3 +21.2
18 19.05 ЮЗ 2 4000 м 6/3 600 м
[Sc diur, vesp Ci fib]
+15.9 -3.1 27 +16 +16 1019.5 964.0
21 19.05 Ю 4 4000 м 6/0
[Ci fib]
+10.6 -1.4 43 +9 +9 1020.6 964.0
00 20.05 Ю 3 50 км 9/0
[Ac trans]
+11.1 -1.6 41 +10 +10 1019.9 963.4
03 20.05 Ю 3 50 км 9/0
[Ac trans]
+13.4 -0.7 38 +13 +14 1019.0 963.0 +9.1
06 20.05 З 2 50 км 6/3 1000 м
[Cu hum Ac lent]
+19.4 +2.3 32 +20 +26 1016.6 962.0
09 20.05 З 3 50 км 4/4 600 м
[Cu med, cong]
+21.0 -0.1 24 +21 +29 комфорт 1014.6 960.3
12 20.05 ЮЗ 1 50 км 8/4 600 м
[Cu med, cong Ci fib]
+21.2 +0.3 25 +21 +25 комфорт 1012.7 958.5
15 20.05 Ю 1 50 км 6/6 600 м
[Sc]
+20.9 +0.9 26 +22 +22 комфорт 1011.0 956.9 +22.3
18 20.05 Ю 2 4000 м 3/0
[Ac lent]
+15.2 +2.0 41 +15 +15 1011.1 955.9
21 20.05 Ю 4 4000 м ясно +13.4 +1.3 44 +12 +12 1010.0 954.5
00 21.05 Ю 2 50 км 3/0
[Ac cast]
+11.8 +1.1 48 +11 +11 1008.9 953.2
03 21.05 Ю 1 50 км 9/0
[Ac trans]
+15.7 +2.9 42 +17 +19 1006.5 951.7 +11.7
06 21.05 Ю 2 50 км 10/6 600 м
[Sc Ac As]
+20.1 +0.7 27 +21 +22 комфорт 1003.7 949.8
09 21.05 ЮВ 1 50 км 10/6 600 м
[Sc Ac As]
+16.8 +6.1 49 +18 +20 1003.1 948.8
12 21.05 СВ 1 4000 м слабый дождь 10/0 600 м
[As op]
+12.5 +11.5 94 +12 +14 1000.6 945.6
15 21.05 Ю 1 4000 м слабый ливневой дождь 10/10 600 м
[Cb cap]
+13.1 +12.5 96 +13 +13 996.7 941.7 +20.8 6
18 21.05 ЮВ 2 4000 м в посл. час ливневой дождь 9/9 600 м
[Cu Sc]
+12.8 +12.8 100 +12 +12 992.4 938.0
21 21.05 Ю 2 4000 м {ливн. осадки} 9/9 600 м
[Cu Sc]
+13.4 +12.4 94 +13 +13 992.7 938.4
00 22.05 ЮЗ 3 50 км {ливн. осадки} 10/10 600 м
[Sc]
+12.9 +11.3 90 +11 +11 993.8 939.3
03 22.05 З 1
{10}
4000 м слабый ливневой дождь 10/10 600 м
[Cb cap]
+11.4 +11.3 99 +11 +11 996.7 941.7 +12.1 4
06 22.05 Ю 1 4000 м слабый ливневой дождь 10/10 600 м
[Cb cap]
+11.7 +11.2 97 +11 +11 998.3 943.4 +11.2
09 22.05 СЗ 3 4000 м слабый ливневой дождь 10/10 600 м
[Cb cap]
+9.1 +9.1 100 +6 +6 1001.0 945.3
12 22.05 С 2 20 км в посл. час ливневой дождь 9/9 600 м
[Cu Sc]
+7.3 +7.3 100 +5 +6 1002.9 946.8
15 22.05 С 2 20 км 10/10 600 м
[Sc]
+6.3 +6.1 99 +4 +4 1003.0 946.7 +12.2 6
18 22.05 С 3 4000 м слабый дождь 10/0
[As op]
+5.7 +5.6 99 +2 +2 1002.5 946.1
21 22.05 С 4 4000 м слабый дождь 10/0 600 м
[As op]
+5.2 +5.2 100 +1 +1 1001.8 945.3
00 23.05 С 2 20 км в посл. час дождь 10/8 600 м
[Frnb As op]
+4.4 +4.1 98 +1 +1 1001.4 944.7
03 23.05 С 3 20 км 10/8 600 м
[Frnb As op]
+3.8 +3.1 95 -0 -0 1002.2 945.4 +3.5 11
06 23.05 С 3 4000 м слабый дождь 10/8 600 м
[Frnb As op]
+4.8 +3.4 91 +1 +2 1003.5 946.8
09 23.05 С 3 20 км в посл. час дождь 10/6 600 м
[Sc As op]
+5.9 +2.1 77 +3 +4 1004.5 947.9
12 23.05 Ю 1 4000 м слабый дождь 10/0
[As op]
+4.6 +3.5 93 +3 +5 1006.7 949.8
15 23.05 СЗ 2 4000 м слабый дождь 10/8 600 м
[Frnb As op]
+4.0 +3.5 97 +1 +1 1008.5 951.4 +5.9 3
18 23.05 ЮЗ 1 4000 м слабый дождь 10/10 600 м
[Frnb Ns]
+3.1 +2.8 98 +1 +1 1010.1 952.7
21 23.05 ЮВ 1 4000 м слабый дождь 10/0 600 м
[As op]
+2.8 +2.8 100 +1 +1 1011.2 953.6
00 24.05 ЮЗ 1 20 км {дождь} 9/9 600 м
[Sc]
+3.2 +2.7 97 +1 +1 1012.2 954.7
03 24.05 ЮЗ 1 50 км 9/9 600 м
[Sc]
+3.9 +3.3 96 +2 +3 1013.6 956.2 +2.8 2

 

Местоположение метеостанции Катав-Ивановск (Челябинская область, Россия): широта 54.77 долгота 58.22 высота над уровнем моря 477 м.

В архиве по умолчанию представлена погода в Катав-Ивановске за последнюю неделю. Архивные данные за месяц целиком и за предыдущие месяцы, начиная с января 2011 года, Вы можете получить, выбрав интересующий диапазон дат из раскрывающегося списка и нажав кнопку "Ввод!".

Внимание! Время в таблицах - всемирное. Для получения местного времени необходимо прибавить поправку, которая в Катав-Ивановске равна 5 ч.

Смотрите также архив погоды в соседних городах и на ближайших метеорологических станциях:

Погода в Улу-Теляке (Башкирия, Россия) (83 км)
Погода в Учалах (Башкирия, Россия) (90 км)
Погода в Белорецке (Башкирия, Россия) (94 км)
Погода в Архангельском (Башкирия, Россия) (100 км)
Погода в Златоусте (Челябинская область, Россия) (103 км)
Погода в Дуване (Башкирия, Россия) (105 км)
Погода в Тукане (Башкирия, Россия) (109 км)
Погода в Верхнеуральске (Челябинская область, Россия) (118 км)
Погода в Миассе (Челябинская область, Россия) (122 км)
Погода в Емашах (Башкирия, Россия) (131 км)

Пояснения к столбцам:

Ветер - указаны скорость ветра в м/с - средняя за 10 мин, порывы в срок и между сроками (в фигурных скобках) и направление, откуда дует ветер: С - северный, СВ - северо-восточный, В - восточный, ЮВ - юго-восточный, Ю - южный, ЮЗ - юго-западный, З - западный, СЗ - северо-западный.
Видимость - горизонтальная дальность видимости в метрах или километрах. При видимости от 1 до 10 км при отсутствии осадков обычно наблюдается дымка, при ухудшении видимости до 1 км и менее - туман. В сухую погоду видимость может ухудшаться дымом, пылью или мглою.
Явления - указаны атмосферные явления, наблюдавшиеся в срок или в последний час перед сроком; фигурными скобками обозначены явления, наблюдавшиеся между сроками (за 1-3 часа до срока); квадратными скобками обозначены град или гололедные отложения с указанием их диаметра в мм.
Облачность - указаны через наклонную черту общая и нижняя облачность в баллах и высота нижней границы облаков в метрах; квадратными скобками обозначены формы облаков: Ci - перистые, Cs - перисто-слоистые, Cc - перисто-кучевые, Ac - высококучевые, As - высокослоистые, Sc - слоисто-кучевые, Ns - слоисто-дождевые, Cu - кучевые, Cb - кучево-дождевые. Подробнее классификацию облаков см. в Атласе облаков (PDF).
T - Температура воздуха - температура, измеренная на высоте 2 м над землей.
Td - Температура точки росы - температура, при понижении до которой содержащийся в воздухе водяной пар достигнет насыщения.
f - Относительная влажность воздуха - влажноcть воздуха, измеренная на высоте 2 м над землей.
Te - Эффективная температура - температура, которую ощущает одетый по сезону человек в тени. Характеристика душности погоды. При расчете учитывается влияние влажности воздуха и скорости ветра на теплоощущения человека.
Tes - Эффективная температура на солнце - температура, которую ощущает человек, с поправкой на солнечный нагрев. Характеристика знойности погоды. Зависит от высоты солнца над горизонтом, облачности и скорости ветра. Ночью, в пасмурную погоду, а также при ветре 12 м/с и более поправка равна нулю.
P - Атмосферное давление - приведенное к уровню моря атмосферное давление.
Po - Атмосферное давление - измеренное на уровне метеостанции атмосферное давление.
Tmin - Минимальная температура - минимум температуры воздуха на высоте 2 м над землей.
Tmax - Максимальная температура - максимум температуры воздуха на высоте 2 м над землей.
R - Количество осадков - Количество выпавших осадков за период времени, мм. При наведении курсора мыши на число - период времени, за который выпало указанное количество осадков.
R24 - Количество осадков - Количество выпавших осадков за 24 часа, мм.
S - Снежный покров - Высота снежного покрова, см. При наведении курсора мыши на число - состояние снежного покрова и степень покрытия местности в баллах.